EXS45C EGJJ-EGPH

Flight info

Callsign EXS45C
Flight time 1h 15m
Altitude 24000
Route SKERY L22 EMWIP P16 FIMCA/N0449F350 DCT BHD DCT WIGGU DCT AZCAL DCT AVTIC DCT ANJAK/N0445F340 N38 NOKIN UP16 RIBEL DCT INPIP
Aircraft B738/M-SDE2E3FGHIRWXY/LB1

Departure

Time 2026-04-26 14:11
Airport Jersey Airport (EGJJ)

Arrival

Time 2026-04-26 15:27
Airport Edinburgh Airport (EGPH)
Time Latitude Longitude Altitude Speed Heading
2026-04-26 13:53 49.20489 -2.19673 279 ft 0 kts 357°
2026-04-26 13:58 49.20479 -2.19673 279 ft 4 kts 358°
2026-04-26 13:58 49.20452 -2.19671 283 ft 4 kts 350°
2026-04-26 13:59 49.20431 -2.19657 281 ft 3 kts 301°
2026-04-26 13:59 49.20427 -2.19647 283 ft 0 kts 298°
2026-04-26 14:04 49.20443 -2.19718 279 ft 12 kts 275°
2026-04-26 14:04 49.20439 -2.19881 279 ft 12 kts 288°
2026-04-26 14:04 49.20512 -2.19931 279 ft 12 kts 360°
2026-04-26 14:05 49.20595 -2.19919 279 ft 12 kts 36°
2026-04-26 14:05 49.20614 -2.19796 279 ft 12 kts 81°
2026-04-26 14:05 49.20640 -2.19681 280 ft 12 kts 51°
2026-04-26 14:05 49.20662 -2.19647 280 ft 1 kts 43°
2026-04-26 14:06 49.20669 -2.19637 280 ft 2 kts 43°
2026-04-26 14:06 49.20696 -2.19570 280 ft 16 kts 73°
2026-04-26 14:06 49.20684 -2.19485 281 ft 9 kts 177°
2026-04-26 14:06 49.20659 -2.19565 281 ft 9 kts 254°
2026-04-26 14:07 49.20632 -2.19645 280 ft 8 kts 229°
2026-04-26 14:07 49.20580 -2.19653 280 ft 8 kts 139°
2026-04-26 14:07 49.20575 -2.19626 280 ft 6 kts 76°
2026-04-26 14:07 49.20555 -2.19683 282 ft 8 kts 356°
2026-04-26 14:08 49.20610 -2.19762 279 ft 13 kts 277°
2026-04-26 14:08 49.20560 -2.19928 279 ft 21 kts 194°
2026-04-26 14:08 49.20534 -2.20054 283 ft 13 kts 297°
2026-04-26 14:08 49.20616 -2.20092 279 ft 13 kts 353°
2026-04-26 14:09 49.20716 -2.20090 281 ft 24 kts 28°
2026-04-26 14:09 49.20767 -2.19708 280 ft 40 kts 82°
2026-04-26 14:09 49.20800 -2.19335 282 ft 34 kts 82°
2026-04-26 14:09 49.20781 -2.18987 280 ft 30 kts 110°
2026-04-26 14:10 49.20718 -2.18768 280 ft 23 kts 82°
2026-04-26 14:10 49.20739 -2.18535 280 ft 22 kts 78°
2026-04-26 14:10 49.20830 -2.18381 280 ft 21 kts 359°
2026-04-26 14:10 49.20881 -2.18556 278 ft 21 kts 264°
2026-04-26 14:11 49.20736 -2.20312 279 ft 166 kts 264°
2026-04-26 14:11 49.20604 -2.22330 678 ft 210 kts 265°
2026-04-26 14:11 49.20442 -2.24637 1543 ft 225 kts 260°
2026-04-26 14:12 49.20176 -2.26952 2715 ft 226 kts 259°
2026-04-26 14:12 49.19890 -2.29470 3159 ft 254 kts 261°
2026-04-26 14:12 49.19815 -2.32212 3989 ft 261 kts 273°
2026-04-26 14:12 49.20089 -2.34966 4681 ft 264 kts 284°
2026-04-26 14:13 49.21593 -2.40056 4986 ft 264 kts 305°
2026-04-26 14:13 49.22761 -2.42227 4997 ft 264 kts 314°
2026-04-26 14:13 49.24138 -2.44088 5005 ft 265 kts 322°
2026-04-26 14:14 49.25683 -2.45632 5002 ft 266 kts 330°
2026-04-26 14:14 49.27307 -2.46986 5007 ft 266 kts 331°
2026-04-26 14:14 49.28945 -2.48308 5005 ft 266 kts 332°
2026-04-26 14:14 49.30588 -2.49633 5002 ft 266 kts 332°
2026-04-26 14:15 49.32226 -2.50960 4995 ft 266 kts 331°
2026-04-26 14:15 49.33864 -2.52294 4999 ft 266 kts 331°
2026-04-26 14:15 49.35495 -2.53627 5005 ft 266 kts 331°
2026-04-26 14:15 49.37127 -2.54964 4999 ft 266 kts 331°
2026-04-26 14:16 49.38762 -2.56307 4996 ft 266 kts 331°
2026-04-26 14:16 49.40395 -2.57648 5001 ft 266 kts 331°
2026-04-26 14:16 49.42024 -2.58989 5000 ft 266 kts 331°
2026-04-26 14:16 49.43658 -2.60333 5014 ft 268 kts 330°
2026-04-26 14:17 49.45263 -2.61836 5277 ft 272 kts 327°
2026-04-26 14:17 49.46853 -2.63428 6276 ft 272 kts 326°
2026-04-26 14:17 49.48436 -2.65029 7247 ft 274 kts 326°
2026-04-26 14:17 49.50039 -2.66650 8085 ft 278 kts 326°
2026-04-26 14:18 49.51651 -2.68277 8913 ft 283 kts 326°
2026-04-26 14:18 49.53313 -2.69952 9769 ft 287 kts 326°
2026-04-26 14:18 49.55005 -2.71656 10479 ft 298 kts 326°
2026-04-26 14:18 49.56813 -2.73478 10686 ft 324 kts 326°
2026-04-26 14:19 49.58772 -2.75451 10929 ft 346 kts 326°
2026-04-26 14:19 49.60817 -2.77510 11522 ft 355 kts 326°
2026-04-26 14:19 49.62899 -2.79604 12318 ft 359 kts 325°
2026-04-26 14:19 49.64997 -2.81717 13125 ft 362 kts 325°
2026-04-26 14:20 49.67117 -2.83854 13903 ft 366 kts 325°
2026-04-26 14:20 49.69258 -2.86014 14602 ft 370 kts 324°
2026-04-26 14:20 49.71421 -2.88200 15307 ft 373 kts 324°
2026-04-26 14:20 49.73606 -2.90410 16015 ft 376 kts 323°
2026-04-26 14:21 49.75802 -2.92634 16721 ft 379 kts 323°
2026-04-26 14:21 49.78022 -2.94885 17407 ft 382 kts 323°
2026-04-26 14:21 49.80254 -2.97150 18089 ft 386 kts 323°
2026-04-26 14:21 49.82510 -2.99442 18726 ft 390 kts 323°
2026-04-26 14:22 49.84786 -3.01758 19295 ft 393 kts 323°
2026-04-26 14:22 49.87078 -3.04092 19856 ft 396 kts 323°
2026-04-26 14:22 49.89392 -3.06451 20422 ft 400 kts 323°
2026-04-26 14:22 49.91728 -3.08834 20976 ft 403 kts 323°
2026-04-26 14:23 49.94052 -3.11208 21504 ft 406 kts 323°
2026-04-26 14:23 49.96421 -3.13631 22029 ft 410 kts 323°
2026-04-26 14:23 49.98805 -3.16109 22534 ft 412 kts 320°
2026-04-26 14:23 50.00812 -3.19240 22990 ft 410 kts 302°
2026-04-26 14:24 50.02281 -3.23039 23542 ft 410 kts 297°
2026-04-26 14:24 50.03691 -3.26908 23959 ft 415 kts 299°
2026-04-26 14:24 50.05433 -3.30497 23992 ft 416 kts 311°
2026-04-26 14:24 50.07616 -3.33482 24019 ft 422 kts 321°
2026-04-26 14:25 50.10151 -3.35850 24022 ft 428 kts 330°
2026-04-26 14:25 50.12818 -3.37931 24025 ft 428 kts 331°
2026-04-26 14:25 50.15490 -3.39986 24013 ft 428 kts 330°
2026-04-26 14:25 50.18151 -3.42065 24014 ft 427 kts 330°
2026-04-26 14:26 50.20793 -3.44171 24018 ft 427 kts 330°
2026-04-26 14:26 50.23435 -3.46301 24018 ft 427 kts 330°
2026-04-26 14:26 50.26131 -3.48249 24013 ft 430 kts 338°
2026-04-26 14:26 50.29025 -3.49476 24021 ft 433 kts 347°
2026-04-26 14:27 50.31007 -3.49898 24024 ft 435 kts 353°
2026-04-26 14:27 50.34044 -3.49881 24032 ft 437 kts
2026-04-26 14:27 50.37088 -3.49626 24028 ft 438 kts
2026-04-26 14:27 50.40139 -3.49378 24026 ft 439 kts
2026-04-26 14:28 50.43179 -3.48923 24031 ft 440 kts
2026-04-26 14:28 50.46219 -3.48350 24040 ft 440 kts
2026-04-26 14:28 50.49259 -3.47734 24041 ft 440 kts
2026-04-26 14:28 50.52301 -3.47112 24042 ft 440 kts
2026-04-26 14:29 50.55336 -3.46502 24047 ft 440 kts
2026-04-26 14:29 50.58377 -3.45902 24050 ft 440 kts
2026-04-26 14:29 50.61412 -3.45313 24058 ft 440 kts
2026-04-26 14:29 50.64450 -3.44730 24051 ft 440 kts
2026-04-26 14:30 50.67486 -3.44149 24049 ft 440 kts
2026-04-26 14:30 50.70526 -3.43567 24057 ft 439 kts
2026-04-26 14:30 50.73521 -3.42993 24058 ft 439 kts
2026-04-26 14:30 50.76554 -3.42411 24053 ft 439 kts
2026-04-26 14:31 50.79583 -3.41830 24053 ft 439 kts
2026-04-26 14:31 50.82616 -3.41246 24054 ft 439 kts
2026-04-26 14:31 50.85645 -3.40663 24053 ft 438 kts
2026-04-26 14:31 50.88678 -3.40077 24047 ft 438 kts
2026-04-26 14:32 50.91702 -3.39492 24045 ft 438 kts
2026-04-26 14:32 50.94733 -3.38905 24045 ft 438 kts
2026-04-26 14:32 50.97760 -3.38319 24038 ft 438 kts
2026-04-26 14:32 51.00798 -3.37729 24033 ft 439 kts
2026-04-26 14:33 51.03826 -3.37141 24037 ft 439 kts
2026-04-26 14:33 51.06854 -3.36551 24027 ft 439 kts
2026-04-26 14:33 51.09886 -3.35960 24030 ft 439 kts
2026-04-26 14:33 51.12918 -3.35369 24036 ft 439 kts
2026-04-26 14:34 51.15949 -3.34775 24038 ft 439 kts
2026-04-26 14:34 51.18985 -3.34182 24043 ft 439 kts
2026-04-26 14:34 51.22018 -3.33583 24048 ft 439 kts
2026-04-26 14:34 51.25048 -3.32975 24047 ft 439 kts
2026-04-26 14:35 51.28075 -3.32364 24057 ft 439 kts
2026-04-26 14:35 51.31104 -3.31750 24056 ft 439 kts
2026-04-26 14:35 51.34130 -3.31137 24051 ft 439 kts
2026-04-26 14:35 51.37154 -3.30525 24052 ft 439 kts
2026-04-26 14:36 51.40189 -3.29909 24055 ft 439 kts
2026-04-26 14:36 51.43223 -3.29294 24065 ft 439 kts
2026-04-26 14:36 51.46249 -3.28680 24064 ft 439 kts
2026-04-26 14:36 51.49278 -3.28064 24052 ft 439 kts
2026-04-26 14:37 51.52300 -3.27449 24050 ft 439 kts
2026-04-26 14:37 51.55341 -3.26829 24045 ft 439 kts
2026-04-26 14:37 51.58371 -3.26210 24049 ft 439 kts
2026-04-26 14:37 51.61387 -3.25594 24040 ft 438 kts
2026-04-26 14:38 51.64419 -3.24973 24040 ft 438 kts
2026-04-26 14:38 51.67434 -3.24355 24056 ft 437 kts
2026-04-26 14:38 51.70449 -3.23737 24056 ft 436 kts
2026-04-26 14:38 51.73462 -3.23118 24048 ft 437 kts
2026-04-26 14:39 51.76476 -3.22497 24052 ft 436 kts
2026-04-26 14:39 51.79489 -3.21876 24052 ft 436 kts
2026-04-26 14:39 51.82498 -3.21256 24043 ft 436 kts
2026-04-26 14:39 51.85504 -3.20635 24041 ft 436 kts
2026-04-26 14:40 51.88514 -3.20012 24045 ft 436 kts
2026-04-26 14:40 51.91528 -3.19445 24045 ft 436 kts
2026-04-26 14:40 51.94554 -3.19106 24046 ft 435 kts
2026-04-26 14:40 51.97573 -3.18888 24049 ft 435 kts
2026-04-26 14:41 52.00603 -3.18710 24046 ft 435 kts
2026-04-26 14:41 52.03592 -3.18533 24049 ft 436 kts
2026-04-26 14:41 52.06623 -3.18339 24048 ft 436 kts
2026-04-26 14:41 52.09658 -3.18128 24043 ft 436 kts
2026-04-26 14:42 52.12698 -3.17905 24045 ft 436 kts
2026-04-26 14:42 52.15724 -3.17675 24042 ft 436 kts
2026-04-26 14:42 52.18757 -3.17442 24048 ft 436 kts
2026-04-26 14:42 52.21797 -3.17206 24044 ft 436 kts
2026-04-26 14:43 52.24828 -3.16971 24042 ft 436 kts
2026-04-26 14:43 52.27860 -3.16735 24040 ft 436 kts
2026-04-26 14:43 52.30893 -3.16500 24038 ft 436 kts
2026-04-26 14:43 52.33930 -3.16264 24045 ft 436 kts
2026-04-26 14:44 52.36961 -3.16029 24043 ft 437 kts
2026-04-26 14:44 52.39997 -3.15793 24041 ft 437 kts
2026-04-26 14:44 52.43034 -3.15556 24045 ft 437 kts
2026-04-26 14:44 52.46071 -3.15319 24042 ft 437 kts
2026-04-26 14:45 52.49103 -3.15083 24042 ft 437 kts
2026-04-26 14:45 52.51115 -3.14926 24043 ft 437 kts
2026-04-26 14:45 52.55182 -3.14608 24041 ft 437 kts
2026-04-26 14:45 52.58217 -3.14370 24047 ft 437 kts
2026-04-26 14:46 52.61249 -3.14131 24046 ft 437 kts
2026-04-26 14:46 52.64286 -3.13893 24041 ft 437 kts
2026-04-26 14:46 52.67322 -3.13654 24041 ft 437 kts
2026-04-26 14:46 52.70350 -3.13231 24031 ft 438 kts
2026-04-26 14:47 52.73324 -3.12078 24039 ft 440 kts 16°
2026-04-26 14:47 52.76160 -3.10140 24042 ft 442 kts 24°
2026-04-26 14:47 52.78923 -3.07910 24035 ft 442 kts 25°
2026-04-26 14:47 52.81643 -3.05679 24028 ft 442 kts 25°
2026-04-26 14:48 52.84409 -3.03454 24033 ft 442 kts 24°
2026-04-26 14:48 52.87181 -3.01266 24030 ft 442 kts 24°
2026-04-26 14:48 52.89974 -2.99105 24039 ft 442 kts 22°
2026-04-26 14:48 52.92826 -2.97229 24034 ft 441 kts 19°
2026-04-26 14:49 52.95716 -2.95502 24032 ft 441 kts 18°
2026-04-26 14:49 52.98606 -2.93812 24029 ft 441 kts 18°
2026-04-26 14:49 53.01493 -2.92098 24029 ft 440 kts 18°
2026-04-26 14:49 53.04378 -2.90349 24030 ft 440 kts 19°
2026-04-26 14:50 53.07246 -2.88590 24031 ft 440 kts 19°
2026-04-26 14:50 53.10120 -2.86816 24034 ft 440 kts 19°
2026-04-26 14:50 53.12999 -2.85033 24027 ft 440 kts 19°
2026-04-26 14:50 53.15869 -2.83252 24027 ft 440 kts 19°
2026-04-26 14:51 53.18738 -2.81470 24024 ft 440 kts 19°
2026-04-26 14:51 53.21609 -2.79685 24029 ft 440 kts 19°
2026-04-26 14:51 53.24468 -2.77905 24030 ft 440 kts 19°
2026-04-26 14:51 53.27342 -2.76113 24029 ft 440 kts 19°
2026-04-26 14:52 53.30177 -2.74344 24039 ft 440 kts 19°
2026-04-26 14:52 53.33044 -2.72553 24028 ft 441 kts 18°
2026-04-26 14:52 53.35922 -2.70750 24022 ft 440 kts 18°
2026-04-26 14:52 53.38788 -2.68954 24028 ft 439 kts 18°
2026-04-26 14:53 53.41653 -2.67155 24030 ft 439 kts 18°
2026-04-26 14:53 53.44512 -2.65358 24025 ft 439 kts 18°
2026-04-26 14:53 53.47372 -2.63561 24029 ft 439 kts 18°
2026-04-26 14:53 53.50231 -2.61765 24029 ft 439 kts 18°
2026-04-26 14:54 53.53091 -2.59967 24027 ft 439 kts 18°
2026-04-26 14:54 53.55952 -2.58165 24042 ft 439 kts 18°
2026-04-26 14:54 53.58810 -2.56362 24039 ft 439 kts 18°
2026-04-26 14:54 53.61667 -2.54557 24041 ft 439 kts 18°
2026-04-26 14:55 53.64525 -2.52747 24038 ft 439 kts 18°
2026-04-26 14:55 53.67391 -2.50929 24030 ft 439 kts 18°
2026-04-26 14:55 53.70252 -2.49110 24026 ft 439 kts 18°
2026-04-26 14:55 53.73110 -2.47290 24029 ft 439 kts 18°
2026-04-26 14:56 53.75972 -2.45464 24035 ft 439 kts 18°
2026-04-26 14:56 53.78836 -2.43635 24031 ft 439 kts 18°
2026-04-26 14:56 53.81694 -2.41807 24035 ft 439 kts 18°
2026-04-26 14:56 53.84554 -2.39975 24041 ft 440 kts 18°
2026-04-26 14:57 53.87423 -2.38135 24026 ft 441 kts 18°
2026-04-26 14:57 53.90292 -2.36292 24024 ft 441 kts 18°
2026-04-26 14:57 53.93157 -2.34449 24023 ft 441 kts 18°
2026-04-26 14:57 53.96027 -2.32601 24033 ft 441 kts 18°
2026-04-26 14:58 53.98924 -2.30945 24020 ft 438 kts
2026-04-26 14:58 54.01925 -2.30471 24036 ft 432 kts 354°
2026-04-26 14:58 54.04878 -2.31170 24027 ft 426 kts 341°
2026-04-26 14:58 54.07640 -2.32906 24045 ft 422 kts 334°
2026-04-26 14:59 54.10355 -2.34834 24038 ft 423 kts 334°
2026-04-26 14:59 54.13070 -2.36781 24029 ft 424 kts 334°
2026-04-26 14:59 54.15757 -2.38699 24032 ft 424 kts 334°
2026-04-26 14:59 54.17597 -2.40003 24019 ft 424 kts 334°
2026-04-26 15:00 54.21216 -2.42548 24034 ft 424 kts 334°
2026-04-26 15:00 54.23974 -2.44475 24011 ft 418 kts 335°
2026-04-26 15:00 54.26583 -2.46291 23915 ft 404 kts 335°
2026-04-26 15:00 54.29152 -2.48078 23648 ft 394 kts 335°
2026-04-26 15:01 54.31677 -2.49840 23211 ft 390 kts 335°
2026-04-26 15:01 54.34174 -2.51586 22688 ft 387 kts 335°
2026-04-26 15:01 54.36666 -2.53334 22163 ft 385 kts 335°
2026-04-26 15:01 54.39138 -2.55069 21686 ft 383 kts 335°
2026-04-26 15:02 54.41592 -2.56793 21243 ft 379 kts 335°
2026-04-26 15:02 54.44025 -2.58504 20793 ft 376 kts 335°
2026-04-26 15:02 54.46444 -2.60207 20344 ft 374 kts 335°
2026-04-26 15:02 54.48843 -2.61899 20083 ft 374 kts 335°
2026-04-26 15:03 54.51257 -2.63605 20062 ft 376 kts 335°
2026-04-26 15:03 54.53667 -2.65308 20018 ft 372 kts 335°
2026-04-26 15:03 54.56054 -2.66998 20041 ft 372 kts 335°
2026-04-26 15:03 54.58448 -2.68695 20035 ft 373 kts 335°
2026-04-26 15:04 54.60852 -2.70400 20018 ft 372 kts 335°
2026-04-26 15:04 54.63244 -2.72099 20025 ft 371 kts 335°
2026-04-26 15:04 54.65628 -2.73794 20022 ft 371 kts 335°
2026-04-26 15:04 54.68012 -2.75492 20037 ft 370 kts 335°
2026-04-26 15:05 54.70396 -2.77192 20024 ft 370 kts 335°
2026-04-26 15:05 54.71168 -2.77743 20025 ft 370 kts 335°
2026-04-26 15:05 54.75129 -2.80574 20021 ft 370 kts 335°
2026-04-26 15:05 54.77509 -2.82279 20021 ft 370 kts 335°
2026-04-26 15:06 54.79887 -2.83983 20030 ft 370 kts 335°
2026-04-26 15:06 54.82265 -2.85689 20025 ft 370 kts 335°
2026-04-26 15:06 54.84643 -2.87398 20021 ft 370 kts 335°
2026-04-26 15:06 54.87027 -2.89112 20029 ft 370 kts 335°
2026-04-26 15:07 54.91786 -2.92551 20025 ft 370 kts 334°
2026-04-26 15:07 54.94165 -2.94277 20023 ft 370 kts 334°
2026-04-26 15:07 54.96546 -2.96006 20021 ft 370 kts 334°
2026-04-26 15:08 54.98920 -2.97732 20026 ft 370 kts 334°
2026-04-26 15:08 55.01297 -2.99462 20012 ft 370 kts 334°
2026-04-26 15:08 55.03670 -3.01192 20008 ft 366 kts 334°
2026-04-26 15:08 55.06012 -3.02900 19590 ft 365 kts 334°
2026-04-26 15:09 55.08352 -3.04610 19151 ft 363 kts 334°
2026-04-26 15:09 55.10677 -3.06310 18702 ft 362 kts 334°
2026-04-26 15:09 55.12992 -3.08005 18212 ft 360 kts 334°
2026-04-26 15:09 55.15270 -3.09675 17722 ft 358 kts 334°
2026-04-26 15:10 55.17594 -3.11379 17207 ft 357 kts 334°
2026-04-26 15:10 55.18337 -3.11924 17053 ft 356 kts 334°
2026-04-26 15:10 55.21385 -3.14160 16401 ft 354 kts 334°
2026-04-26 15:10 55.24395 -3.16373 15769 ft 353 kts 334°
2026-04-26 15:11 55.26655 -3.18036 15306 ft 352 kts 334°
2026-04-26 15:11 55.28913 -3.19658 14830 ft 351 kts 338°
2026-04-26 15:11 55.31337 -3.20310 14345 ft 357 kts 359°
2026-04-26 15:11 55.33007 -3.20123 14072 ft 356 kts
2026-04-26 15:12 55.35470 -3.19725 13558 ft 355 kts
2026-04-26 15:12 55.37921 -3.19290 13062 ft 354 kts
2026-04-26 15:12 55.40321 -3.18866 12556 ft 347 kts
2026-04-26 15:12 55.42726 -3.18454 12052 ft 337 kts
2026-04-26 15:13 55.44998 -3.18078 11563 ft 330 kts
2026-04-26 15:13 55.47311 -3.17706 10931 ft 328 kts
2026-04-26 15:13 55.49578 -3.17349 10325 ft 326 kts
2026-04-26 15:13 55.51829 -3.16996 9670 ft 324 kts
2026-04-26 15:14 55.54067 -3.16643 9021 ft 322 kts
2026-04-26 15:14 55.56265 -3.16297 8390 ft 319 kts
2026-04-26 15:14 55.58477 -3.15949 7755 ft 317 kts
2026-04-26 15:14 55.60664 -3.15604 7239 ft 312 kts
2026-04-26 15:15 55.62766 -3.15271 7080 ft 295 kts
2026-04-26 15:15 55.64754 -3.14954 6991 ft 277 kts
2026-04-26 15:15 55.66622 -3.14657 6980 ft 262 kts
2026-04-26 15:15 55.68417 -3.14373 6996 ft 258 kts
2026-04-26 15:16 55.70198 -3.14542 6988 ft 256 kts 338°
2026-04-26 15:16 55.71662 -3.16177 7007 ft 250 kts 309°
2026-04-26 15:16 55.72532 -3.18736 6994 ft 241 kts 287°
2026-04-26 15:16 55.73011 -3.21512 6917 ft 229 kts 283°
2026-04-26 15:17 55.73419 -3.24157 6811 ft 216 kts 283°
2026-04-26 15:17 55.73678 -3.25860 6747 ft 207 kts 283°
2026-04-26 15:17 55.74157 -3.28990 6580 ft 191 kts 282°
2026-04-26 15:17 55.74503 -3.31242 6311 ft 188 kts 283°
2026-04-26 15:18 55.74850 -3.33498 5901 ft 193 kts 283°
2026-04-26 15:18 55.75214 -3.35853 5414 ft 201 kts 283°
2026-04-26 15:18 55.75592 -3.38290 4939 ft 208 kts 283°
2026-04-26 15:18 55.75973 -3.40740 4737 ft 200 kts 283°
2026-04-26 15:19 55.76334 -3.43049 4619 ft 189 kts 283°
2026-04-26 15:19 55.76682 -3.45281 4322 ft 187 kts 283°
2026-04-26 15:19 55.77027 -3.47498 4084 ft 186 kts 283°
2026-04-26 15:19 55.77374 -3.49731 4034 ft 187 kts 283°
2026-04-26 15:20 55.77719 -3.51954 4009 ft 186 kts 283°
2026-04-26 15:20 55.78062 -3.54162 4004 ft 186 kts 283°
2026-04-26 15:20 55.78406 -3.56372 4000 ft 185 kts 283°
2026-04-26 15:20 55.78750 -3.58585 4012 ft 187 kts 283°
2026-04-26 15:21 55.79096 -3.60818 4009 ft 188 kts 283°
2026-04-26 15:21 55.79442 -3.63059 4007 ft 189 kts 283°
2026-04-26 15:21 55.79791 -3.65319 4007 ft 190 kts 283°
2026-04-26 15:21 55.80141 -3.67587 3994 ft 189 kts 283°
2026-04-26 15:22 55.80596 -3.69754 3971 ft 188 kts 306°
2026-04-26 15:22 55.81729 -3.70897 4008 ft 205 kts 354°
2026-04-26 15:22 55.83098 -3.70270 3983 ft 205 kts 39°
2026-04-26 15:22 55.84038 -3.68517 3962 ft 191 kts 50°
2026-04-26 15:23 55.84855 -3.66730 3765 ft 182 kts 51°
2026-04-26 15:23 55.85605 -3.64947 3518 ft 177 kts 56°
2026-04-26 15:23 55.86267 -3.63126 3309 ft 175 kts 58°
2026-04-26 15:23 55.86902 -3.61272 3073 ft 176 kts 59°
2026-04-26 15:24 55.87532 -3.59401 2827 ft 177 kts 59°
2026-04-26 15:24 55.88162 -3.57527 2579 ft 176 kts 59°
2026-04-26 15:24 55.88786 -3.55669 2332 ft 171 kts 59°
2026-04-26 15:24 55.89394 -3.53865 2124 ft 170 kts 59°
2026-04-26 15:25 55.90003 -3.52051 1891 ft 171 kts 59°
2026-04-26 15:25 55.90409 -3.50846 1731 ft 171 kts 58°
2026-04-26 15:25 55.91223 -3.48432 1429 ft 168 kts 58°
2026-04-26 15:25 55.91824 -3.46650 1185 ft 167 kts 59°
2026-04-26 15:26 55.92417 -3.44887 949 ft 162 kts 58°
2026-04-26 15:26 55.92988 -3.43198 748 ft 156 kts 59°
2026-04-26 15:26 55.93525 -3.41608 571 ft 144 kts 59°
2026-04-26 15:26 55.94020 -3.40134 407 ft 134 kts 60°
2026-04-26 15:27 55.94503 -3.38726 161 ft 135 kts 57°
2026-04-26 15:27 55.94955 -3.37409 111 ft 111 kts 59°
2026-04-26 15:27 55.95224 -3.36596 111 ft 41 kts 60°
2026-04-26 15:27 55.95214 -3.36375 113 ft 14 kts 148°
2026-04-26 15:28 55.95181 -3.36339 112 ft 5 kts 149°
2026-04-26 15:28 55.95152 -3.36302 115 ft 5 kts 130°
2026-04-26 15:28 55.95139 -3.36244 112 ft 5 kts 110°
2026-04-26 15:28 55.95128 -3.36185 115 ft 5 kts 108°
2026-04-26 15:29 55.95117 -3.36127 115 ft 5 kts 108°
2026-04-26 15:29 55.95106 -3.36070 114 ft 5 kts 108°
2026-04-26 15:29 55.95083 -3.35961 113 ft 5 kts 115°
2026-04-26 15:30 55.95038 -3.35840 114 ft 17 kts 151°
2026-04-26 15:30 55.94895 -3.35908 114 ft 13 kts 185°
2026-04-26 15:30 55.94871 -3.35812 114 ft 20 kts 47°
2026-04-26 15:31 55.94866 -3.35762 112 ft 5 kts 190°
2026-04-26 15:31 55.94850 -3.35787 113 ft 0 kts 217°
2026-04-26 15:31 55.94846 -3.35793 112 ft 0 kts 214°
2026-04-26 15:32 55.94838 -3.35801 115 ft 1 kts 212°
2026-04-26 15:32 55.94832 -3.35808 115 ft 0 kts 210°
2026-04-26 15:33 55.94831 -3.35808 115 ft 0 kts 210°